Wind_Speed
26 26 27 28 28 28 28 29 29 29 30 30 30 31 31 31 32 32 31 31 32 33 34 34 33 34 36 37 36 37 38 38 38 37 37 37 39 40 40 40 40 40 40
25 26 27 27 27 28 28 29 29 29 29 29 29 30 30 31 31 32 31 31 31 32 32 33 33 34 35 35 35 36 36 36 36 37 37 37 38 39 39 39 39 38 38
26 26 26 26 26 27 28 27 27 28 28 28 29 29 30 30 31 31 31 30 30 30 31 32 32 33 34 33 34 34 34 33 33 34 35 35 36 36 36 36 36 36 35
26 25 25 25 25 25 25 25 25 25 25 25 26 27 28 28 28 29 30 30 30 29 29 29 29 30 30 31 31 31 31 32 31 32 32 32 32 32 32 33 33 33 33
24 23 23 23 22 22 23 23 22 22 22 23 23 24 25 25 26 26 27 27 27 26 27 27 27 27 27 28 27 28 29 29 29 29 29 30 30 30 31 30 30 30 30
22 22 21 20 20 19 20 20 20 20 20 20 21 21 21 22 23 23 23 24 24 23 24 24 24 24 25 25 25 25 26 26 26 26 27 27 27 28 28 27 27 27 27
21 20 19 17 16 16 16 17 18 18 19 19 19 20 20 20 21 21 21 21 21 21 21 21 22 23 22 22 22 23 23 23 23 24 24 25 25 25 25 25 25 25 25
19 18 17 16 16 15 15 15 15 16 16 16 16 17 17 18 18 18 18 19 19 18 19 19 18 18 19 19 19 19 20 21 22 22 22 22 22 22 22 22 23 23 24
16 15 14 14 14 13 13 14 13 13 14 15 14 14 14 15 15 15 15 16 16 16 16 17 16 15 16 16 16 17 18 18 19 19 19 19 20 20 20 20 20 20 20
13 12 12 12 11 11 10 11 11 11 11 11 11 11 11 12 12 12 13 12 13 14 14 14 13 13 14 14 14 15 16 16 16 16 16 16 17 17 17 17 17 17 17
9 9 9 9 8 8 7 7 8 8 8 8 8 8 8 8 9 10 10 10 10 10 11 11 11 12 12 12 12 12 12 13 13 14 15 15 15 15 15 15 15 15 15
6 6 6 6 5 5 5 5 5 5 6 5 5 6 6 6 6 7 7 7 6 7 7 8 9 10 10 10 10 10 10 11 11 12 12 12 13 13 12 12 11 11 12
4 3 3 3 3 3 2 2 3 3 4 4 4 4 4 4 4 5 5 5 5 6 6 7 7 7 7 8 8 8 9 9 9 9 9 10 10 10 10 9 8 8 8
3 3 3 2 2 2 2 2 2 1 1 2 1 2 2 1 1 2 2 2 2 3 4 4 4 4 4 5 6 6 6 7 7 7 8 8 8 7 7 7 7 7 7
5 5 5 5 5 5 4 5 5 4 4 3 3 3 3 3 3 2 2 1 1 1 1 1 1 1 1 2 3 3 4 5 5 5 5 5 5 4 5 5 5 6 6
7 7 7 7 7 7 7 7 7 7 7 6 6 6 5 5 5 5 5 5 4 4 3 4 4 3 3 2 3 4 3 3 3 3 3 3 3 3 3 3 4 4 4
9 9 9 10 10 10 9 9 9 9 9 9 9 9 8 8 8 8 8 7 7 7 6 6 5 5 4 4 4 4 3 3 3 3 3 3 2 2 2 2 2 3 3
12 12 12 12 12 12 11 11 11 11 11 12 11 11 11 11 10 10 9 9 9 9 8 7 6 6 6 5 5 5 5 5 4 4 3 3 2 2 2 2 2 2 3
14 14 13 14 14 14 14 14 14 13 13 13 13 13 13 13 13 12 12 11 11 10 10 9 9 8 8 7 7 6 6 6 5 5 4 4 4 3 3 3 3 3 4
15 15 15 15 15 16 16 16 15 15 15 15 15 15 15 15 15 14 14 13 12 12 11 11 10 10 9 8 8 7 7 7 6 6 5 5 4 4 4 4 4 4 5
16 16 16 17 17 16 16 16 16 16 16 16 16 16 16 16 16 16 15 15 14 13 12 11 11 10 10 9 9 8 8 7 7 6 6 5 5 5 5 5 5 6 7
17 17 17 17 16 17 17 17 17 17 16 16 16 16 16 16 16 16 15 15 14 13 13 12 11 11 10 10 9 8 8 7 6 6 5 5 6 6 6 7 7 8 9
16 16 16 16 16 16 17 17 17 16 16 16 16 16 15 15 15 14 14 14 13 13 13 12 11 11 10 9 9 8 7 7 7 6 6 6 7 7 8 9 10 10 11
16 16 16 16 16 16 16 16 16 16 15 15 15 14 14 14 14 14 13 13 13 12 12 12 11 11 10 9 8 8 7 7 7 8 8 8 9 9 10 11 12 12 13
15 15 15 15 15 15 15 15 14 14 14 14 14 14 13 13 13 13 12 12 12 12 12 11 11 11 11 10 10 9 9 9 9 9 10 10 11 12 12 13 13 14 15
14 14 14 14 14 14 14 14 13 13 13 13 13 13 13 12 12 12 12 12 12 12 12 12 11 11 11 11 11 11 11 10 10 11 12 12 13 14 14 15 15 16 16
Wind_Direction
281 279 277 275 275 275 273 272 273 272 272 270 267 265 263 261 260 259 257 256 254 255 255 254 254 254 254 254 254 255 255 256 257 258 260 263 263 266 268 269 271 272 275
283 281 280 278 276 275 275 275 275 275 273 271 268 266 263 261 261 260 258 258 256 256 255 256 256 255 256 256 255 255 256 257 259 261 263 266 267 269 270 271 273 274 275
285 285 283 281 278 276 277 276 275 274 273 271 268 266 264 262 259 259 258 258 257 257 258 258 257 256 256 258 259 259 259 260 262 264 265 266 267 269 271 273 275 275 276
288 288 286 285 282 278 276 276 276 274 272 271 267 264 263 262 260 259 258 257 258 259 259 259 259 259 260 261 261 260 260 261 262 264 264 265 267 271 272 273 275 277 278
289 289 288 286 283 279 277 276 275 273 272 272 270 267 263 260 259 259 257 256 256 258 259 259 260 259 259 260 261 261 261 261 262 263 265 266 268 271 272 274 275 277 279
290 291 290 287 285 282 280 275 274 276 275 274 273 269 265 263 261 260 258 257 256 256 258 258 258 259 259 259 261 261 261 262 262 264 265 267 269 271 272 273 275 277 277
292 291 289 287 285 283 280 277 275 275 276 277 272 269 266 264 263 260 258 259 258 257 258 259 259 259 258 260 261 262 263 264 264 264 265 268 270 271 272 273 275 276 277
290 289 288 287 285 282 279 278 275 272 273 275 273 271 266 263 260 258 257 257 255 255 258 260 262 260 262 263 264 265 264 265 266 266 266 268 270 272 275 276 277 278 279
288 286 284 285 286 283 279 277 277 274 274 276 274 274 272 266 259 255 258 257 253 255 258 260 261 262 263 264 266 269 270 270 269 270 270 270 273 275 276 277 277 278 280
289 286 285 285 286 284 277 276 278 278 279 276 275 276 275 267 261 257 257 259 255 254 255 258 260 260 263 266 269 273 273 273 273 274 275 275 275 274 277 278 279 280 281
296 292 286 283 281 280 278 279 284 286 285 280 280 282 280 274 265 256 251 251 253 252 256 259 260 261 262 263 266 271 274 275 274 275 276 274 275 277 277 279 279 280 282
301 294 286 283 285 282 283 287 289 294 296 291 287 291 290 279 265 253 246 249 250 249 258 264 264 263 262 264 270 276 281 281 281 280 280 279 282 282 282 282 282 283 282
312 311 304 299 297 290 296 296 303 305 309 306 300 299 298 284 269 252 242 248 258 261 260 265 267 266 270 274 278 282 284 286 287 286 286 286 286 284 282 282 283 283 282
22 33 37 42 49 47 48 33 27 16 4 4 345 346 340 339 294 226 233 240 265 267 260 266 275 279 287 287 289 286 286 289 292 292 288 286 284 280 279 281 282 282 283
59 66 70 75 79 70 68 63 63 61 60 57 62 70 73 78 85 96 105 93 54 46 42 355 335 338 328 321 321 316 309 309 305 300 294 290 283 279 284 283 280 282 283
67 74 78 80 77 75 76 74 71 68 68 70 74 79 78 78 78 77 76 72 69 75 81 80 72 63 50 28 1 352 342 336 333 327 324 320 316 299 293 293 291 293 290
74 77 78 78 78 79 81 80 79 76 75 77 79 79 77 75 75 73 74 77 79 79 78 73 66 57 48 37 30 25 23 22 22 16 9 0 351 339 320 309 310 306 299
78 79 80 80 80 81 81 81 80 78 78 78 80 78 76 76 76 76 77 78 78 76 73 69 65 60 57 55 54 52 51 50 47 42 38 32 28 21 8 352 339 327 316
81 82 81 81 81 82 81 81 80 81 81 80 80 78 77 77 78 78 78 76 75 73 72 71 68 64 62 61 60 60 58 56 56 55 53 49 40 34 25 13 357 343 332
84 84 84 84 83 83 83 83 83 83 82 82 81 80 79 77 76 76 75 75 74 73 72 70 67 66 64 63 63 63 62 62 61 58 53 48 44 39 28 16 0 346 337
86 87 87 87 86 85 84 84 84 84 84 84 82 80 78 77 75 74 73 72 71 70 68 67 66 65 64 63 63 64 64 61 58 56 53 47 38 26 15 2 350 341 334
87 88 88 88 87 86 86 85 85 85 85 84 82 80 78 76 75 73 71 70 68 66 64 64 64 63 62 61 60 59 57 55 50 44 37 26 16 4 355 347 340 334 330
87 89 89 89 88 87 87 86 85 84 84 83 81 78 76 74 72 70 68 65 64 63 61 59 58 57 55 52 50 48 44 39 31 21 10 359 351 345 340 336 332 329 327
89 89 89 89 88 87 87 86 85 84 83 81 78 76 73 71 69 66 64 62 60 58 56 53 51 48 45 42 39 34 27 20 12 5 358 351 344 338 334 329 326 324 323
90 90 89 88 88 87 87 86 85 84 81 78 74 72 69 66 63 61 59 56 54 52 50 47 45 41 38 33 27 20 13 5 358 353 348 344 339 335 331 327 325 323 322
90 89 89 88 88 87 86 86 84 81 77 73 69 65 61 59 57 55 53 51 48 44 42 39 35 30 24 19 14 9 4 359 354 348 342 338 335 333 331 329 326 323 322
Height
5768 5766 5765 5764 5763 5763 5762 5761 5760 5759 5759 5759 5759 5758 5759 5759 5759 5760 5761 5761 5763 5763 5764 5765 5766 5768 5769 5770 5771 5772 5773 5773 5774 5774 5775 5775 5776 5776 5775 5775 5774 5773 5773
5761 5759 5758 5757 5756 5755 5754 5753 5752 5751 5750 5750 5750 5750 5750 5751 5751 5752 5753 5753 5754 5755 5756 5757 5758 5759 5760 5761 5762 5763 5764 5764 5765 5765 5766 5766 5766 5766 5766 5765 5765 5764 5763
5753 5752 5750 5749 5748 5747 5745 5744 5743 5743 5742 5741 5741 5741 5742 5742 5743 5744 5744 5745 5746 5747 5748 5749 5750 5751 5752 5752 5753 5754 5755 5756 5756 5757 5757 5758 5758 5758 5757 5757 5756 5755 5754
5746 5744 5742 5741 5740 5739 5738 5737 5736 5735 5734 5733 5733 5733 5734 5734 5735 5735 5736 5737 5738 5739 5740 5741 5742 5743 5744 5745 5745 5746 5747 5748 5748 5749 5749 5749 5749 5749 5749 5748 5748 5747 5746
5738 5737 5735 5733 5732 5731 5730 5729 5729 5728 5727 5727 5726 5726 5726 5726 5727 5728 5729 5730 5731 5732 5733 5734 5735 5736 5736 5737 5738 5739 5740 5740 5740 5741 5741 5741 5741 5741 5741 5740 5740 5739 5738
5731 5730 5728 5727 5726 5725 5724 5723 5722 5722 5721 5721 5720 5719 5719 5720 5720 5721 5722 5723 5724 5725 5726 5726 5727 5728 5729 5730 5731 5732 5732 5733 5733 5734 5734 5734 5734 5734 5733 5733 5732 5732 5731
5725 5723 5722 5721 5720 5719 5718 5717 5717 5716 5716 5715 5715 5714 5714 5714 5715 5715 5716 5718 5718 5719 5720 5721 5721 5722 5723 5724 5724 5725 5725 5726 5727 5727 5727 5727 5727 5727 5726 5726 5725 5725 5724
5719 5717 5717 5716 5715 5714 5713 5712 5712 5711 5711 5711 5710 5709 5708 5709 5710 5710 5711 5712 5713 5714 5714 5715 5716 5716 5717 5718 5719 5719 5720 5720 5720 5720 5721 5721 5721 5721 5720 5719 5719 5718 5717
5713 5712 5712 5711 5710 5709 5709 5708 5708 5708 5707 5707 5706 5705 5705 5705 5705 5706 5707 5707 5708 5709 5710 5710 5711 5712 5713 5713 5714 5714 5714 5715 5715 5715 5715 5715 5715 5715 5714 5713 5713 5712 5712
5709 5708 5708 5707 5706 5706 5705 5705 5705 5704 5703 5703 5703 5702 5702 5701 5702 5702 5703 5704 5704 5705 5706 5706 5707 5708 5709 5709 5710 5710 5710 5710 5710 5710 5710 5710 5710 5709 5709 5708 5707 5707 5706
5706 5705 5704 5704 5703 5703 5702 5702 5702 5702 5701 5700 5700 5699 5699 5699 5699 5700 5700 5701 5701 5702 5702 5703 5704 5704 5705 5705 5706 5706 5706 5706 5706 5706 5705 5705 5705 5704 5704 5703 5703 5702 5702
5703 5703 5702 5702 5701 5701 5700 5700 5700 5700 5699 5699 5698 5698 5697 5697 5697 5697 5698 5698 5699 5699 5700 5700 5701 5701 5702 5702 5703 5702 5702 5702 5702 5701 5701 5701 5700 5700 5700 5699 5699 5698 5698
5702 5701 5701 5700 5700 5700 5699 5699 5699 5698 5698 5697 5697 5696 5696 5695 5695 5695 5696 5696 5697 5697 5698 5698 5698 5699 5699 5700 5700 5700 5700 5699 5699 5698 5698 5698 5697 5697 5696 5696 5696 5696 5695
5702 5701 5700 5700 5700 5699 5699 5699 5698 5698 5697 5696 5696 5695 5695 5695 5694 5695 5695 5695 5696 5696 5696 5696 5697 5697 5698 5698 5698 5698 5697 5697 5696 5696 5696 5695 5695 5695 5694 5694 5694 5694 5693
5703 5702 5701 5701 5700 5700 5699 5699 5698 5698 5698 5697 5697 5696 5696 5695 5695 5695 5695 5695 5695 5695 5695 5696 5696 5696 5697 5696 5696 5696 5696 5695 5695 5695 5694 5694 5693 5693 5693 5692 5692 5692 5691
5704 5703 5703 5702 5702 5701 5701 5700 5700 5699 5699 5698 5698 5698 5697 5697 5696 5696 5696 5696 5696 5696 5696 5696 5696 5696 5696 5696 5696 5695 5695 5695 5694 5694 5693 5693 5692 5692 5692 5691 5691 5690 5690
5706 5705 5705 5704 5704 5703 5703 5702 5702 5702 5701 5700 5700 5699 5699 5699 5698 5698 5698 5697 5697 5697 5697 5697 5697 5697 5697 5696 5696 5696 5695 5694 5694 5693 5693 5692 5692 5691 5691 5691 5690 5690 5690
5709 5708 5707 5707 5706 5706 5705 5705 5704 5704 5704 5703 5703 5702 5701 5701 5700 5700 5700 5700 5699 5699 5699 5698 5698 5698 5698 5697 5697 5696 5696 5695 5695 5694 5694 5693 5692 5692 5691 5691 5690 5690 5689
5712 5711 5711 5710 5710 5709 5708 5708 5707 5707 5707 5706 5706 5705 5705 5704 5703 5703 5703 5702 5702 5701 5701 5701 5700 5700 5699 5699 5698 5698 5697 5697 5696 5695 5695 5694 5693 5693 5692 5691 5691 5690 5689
5716 5715 5715 5714 5713 5713 5712 5712 5711 5711 5710 5710 5710 5709 5709 5708 5708 5707 5706 5706 5705 5704 5704 5703 5703 5702 5702 5701 5700 5700 5699 5698 5698 5697 5696 5695 5694 5694 5693 5692 5691 5690 5689
5720 5719 5719 5718 5718 5717 5717 5716 5716 5715 5715 5715 5714 5714 5713 5712 5712 5711 5710 5709 5709 5708 5707 5707 5706 5705 5704 5703 5703 5702 5701 5700 5699 5698 5698 5697 5696 5695 5694 5692 5691 5690 5688
5724 5724 5723 5723 5722 5722 5721 5721 5720 5720 5720 5719 5719 5718 5718 5717 5716 5715 5714 5714 5713 5712 5711 5710 5709 5708 5707 5706 5705 5704 5703 5702 5701 5700 5699 5698 5697 5695 5694 5692 5691 5689 5687
5729 5728 5728 5727 5727 5727 5726 5726 5725 5725 5724 5724 5723 5723 5722 5721 5720 5720 5719 5718 5716 5715 5714 5713 5712 5711 5709 5708 5707 5706 5705 5704 5703 5701 5700 5698 5697 5695 5694 5692 5690 5688 5686
5734 5733 5732 5732 5732 5731 5731 5730 5730 5730 5729 5728 5728 5727 5726 5725 5724 5723 5722 5721 5720 5719 5717 5716 5715 5713 5712 5710 5709 5708 5706 5705 5703 5702 5700 5698 5696 5695 5693 5691 5688 5686 5684
5738 5738 5737 5737 5736 5735 5735 5735 5734 5734 5733 5733 5732 5731 5730 5729 5728 5727 5726 5724 5723 5722 5720 5718 5717 5715 5714 5712 5710 5709 5707 5705 5703 5701 5700 5698 5696 5693 5691 5689 5686 5684 5681
5743 5742 5742 5741 5740 5740 5739 5739 5738 5738 5737 5736 5735 5734 5733 5732 5731 5730 5728 5727 5725 5724 5722 5721 5719 5717 5715 5713 5711 5709 5708 5706 5703 5701 5699 5696 5694 5691 5689 5686 5683 5681 5678